Time,TemperatureF,DewpointF,PressureIn,WindDirection,WindDirectionDegrees,WindSpeedMPH,WindSpeedGustMPH,Humidity,HourlyPrecipIn,Conditions,Clouds,dailyrainin,SoftwareType,DateUTC
2013-03-15 00:02:00,37.0,17.0,-100.00,WNW,289,9.0,18.0,43,-99.99,,,-99.99,,2013-03-15 06:02:00,
2013-03-15 00:12:00,37.0,17.0,-100.00,WNW,289,9.0,18.0,43,-99.99,,,-99.99,,2013-03-15 06:12:00,
2013-03-15 00:22:00,37.0,17.0,-100.00,WNW,292,9.0,21.0,43,-99.99,,,-99.99,,2013-03-15 06:22:00,
2013-03-15 00:32:00,37.0,17.0,-100.00,WNW,289,11.0,21.0,44,-99.99,,,-99.99,,2013-03-15 06:32:00,
2013-03-15 00:42:00,37.0,17.0,-100.00,WNW,289,11.0,21.0,44,-99.99,,,-99.99,,2013-03-15 06:42:00,
2013-03-15 00:53:00,36.0,17.0,-100.00,WNW,293,10.0,23.0,46,-99.99,,,-99.99,,2013-03-15 06:53:00,
2013-03-15 01:02:00,36.0,19.0,-100.00,WNW,300,10.0,23.0,49,-99.99,,,-99.99,,2013-03-15 07:02:00,
2013-03-15 01:12:00,36.0,19.0,-100.00,WNW,300,10.0,23.0,49,-99.99,,,-99.99,,2013-03-15 07:12:00,
2013-03-15 01:22:00,35.0,19.0,-100.00,WNW,298,11.0,24.0,51,-99.99,,,-99.99,,2013-03-15 07:22:00,
2013-03-15 01:32:00,35.0,19.0,-100.00,WNW,296,12.0,22.0,52,-99.99,,,-99.99,,2013-03-15 07:32:00,
2013-03-15 01:42:00,35.0,19.0,-100.00,WNW,296,12.0,22.0,52,-99.99,,,-99.99,,2013-03-15 07:42:00,
2013-03-15 01:52:00,35.0,20.0,-100.00,WNW,298,10.0,24.0,54,-99.99,,,-99.99,,2013-03-15 07:52:00,
2013-03-15 02:02:00,35.0,20.0,-100.00,WNW,302,12.0,23.0,53,-99.99,,,-99.99,,2013-03-15 08:02:00,
2013-03-15 02:12:00,35.0,20.0,-100.00,WNW,302,12.0,23.0,53,-99.99,,,-99.99,,2013-03-15 08:12:00,
2013-03-15 02:22:00,35.0,19.0,-100.00,WNW,300,12.0,26.0,51,-99.99,,,-99.99,,2013-03-15 08:22:00,
2013-03-15 02:32:00,35.0,18.0,-100.00,WNW,303,15.0,38.0,49,-99.99,,,-99.99,,2013-03-15 08:32:00,
2013-03-15 02:42:00,35.0,18.0,-100.00,WNW,303,15.0,38.0,49,-99.99,,,-99.99,,2013-03-15 08:42:00,
2013-03-15 02:52:00,35.0,17.0,-100.00,WNW,302,17.0,35.0,47,-99.99,,,-99.99,,2013-03-15 08:52:00,
2013-03-15 03:02:00,36.0,15.0,-100.00,WNW,301,16.0,30.0,42,-99.99,,,-99.99,,2013-03-15 09:02:00,
2013-03-15 03:12:00,36.0,15.0,-100.00,WNW,301,16.0,30.0,42,-99.99,,,-99.99,,2013-03-15 09:12:00,
2013-03-15 03:22:00,35.0,15.0,-100.00,WNW,301,17.0,32.0,43,-99.99,,,-99.99,,2013-03-15 09:22:00,
2013-03-15 03:33:00,35.0,15.0,-100.00,WNW,302,18.0,37.0,43,-99.99,,,-99.99,,2013-03-15 09:33:00,
2013-03-15 03:42:00,35.0,15.0,-100.00,WNW,302,18.0,37.0,43,-99.99,,,-99.99,,2013-03-15 09:42:00,
2013-03-15 03:53:00,35.0,16.0,-100.00,NW,307,15.0,28.0,46,-99.99,,,-99.99,,2013-03-15 09:53:00,
2013-03-15 04:02:00,35.0,16.0,-100.00,NW,305,16.0,41.0,46,-99.99,,,-99.99,,2013-03-15 10:02:00,
2013-03-15 04:12:00,35.0,16.0,-100.00,NW,305,16.0,41.0,46,-99.99,,,-99.99,,2013-03-15 10:12:00,
2013-03-15 04:23:00,34.0,16.0,-100.00,NW,305,15.0,33.0,48,-99.99,,,-99.99,,2013-03-15 10:23:00,
2013-03-15 04:32:00,34.0,17.0,-100.00,NW,307,16.0,26.0,50,-99.99,,,-99.99,,2013-03-15 10:32:00,
2013-03-15 04:42:00,34.0,17.0,-100.00,NW,307,16.0,26.0,50,-99.99,,,-99.99,,2013-03-15 10:42:00,
2013-03-15 04:52:00,34.0,18.0,-100.00,NW,309,18.0,33.0,51,-99.99,,,-99.99,,2013-03-15 10:52:00,
2013-03-15 05:02:00,34.0,18.0,-100.00,NW,306,18.0,34.0,51,-99.99,,,-99.99,,2013-03-15 11:02:00,
2013-03-15 05:12:00,34.0,18.0,-100.00,NW,306,18.0,34.0,51,-99.99,,,-99.99,,2013-03-15 11:12:00,
2013-03-15 05:22:00,33.0,17.0,-100.00,NW,311,18.0,34.0,52,-99.99,,,-99.99,,2013-03-15 11:22:00,
2013-03-15 05:32:00,33.0,17.0,-100.00,NW,307,17.0,35.0,52,-99.99,,,-99.99,,2013-03-15 11:32:00,
2013-03-15 05:42:00,33.0,17.0,-100.00,NW,307,17.0,35.0,52,-99.99,,,-99.99,,2013-03-15 11:42:00,
2013-03-15 05:52:00,33.0,16.0,-100.00,NW,306,21.0,41.0,49,-99.99,,,-99.99,,2013-03-15 11:52:00,
2013-03-15 06:02:00,33.0,15.0,-100.00,NW,310,17.0,34.0,48,-99.99,,,-99.99,,2013-03-15 12:02:00,
2013-03-15 06:12:00,33.0,15.0,-100.00,NW,310,17.0,34.0,48,-99.99,,,-99.99,,2013-03-15 12:12:00,
2013-03-15 06:22:00,33.0,15.0,-100.00,NW,312,17.0,34.0,48,-99.99,,,-99.99,,2013-03-15 12:22:00,
2013-03-15 06:32:00,33.0,15.0,-100.00,NW,312,18.0,34.0,48,-99.99,,,-99.99,,2013-03-15 12:32:00,
2013-03-15 06:42:00,33.0,15.0,-100.00,NW,312,18.0,34.0,48,-99.99,,,-99.99,,2013-03-15 12:42:00,
2013-03-15 06:52:00,33.0,16.0,-100.00,NW,312,18.0,37.0,49,-99.99,,,-99.99,,2013-03-15 12:52:00,
2013-03-15 07:02:00,33.0,16.0,-100.00,NW,309,19.0,34.0,49,-99.99,,,-99.99,,2013-03-15 13:02:00,
2013-03-15 07:12:00,33.0,16.0,-100.00,NW,309,19.0,34.0,49,-99.99,,,-99.99,,2013-03-15 13:12:00,
2013-03-15 07:22:00,33.0,16.0,-100.00,NW,309,21.0,35.0,49,-99.99,,,-99.99,,2013-03-15 13:22:00,
2013-03-15 07:32:00,33.0,15.0,-100.00,NW,307,21.0,37.0,48,-99.99,,,-99.99,,2013-03-15 13:32:00,
2013-03-15 07:42:00,33.0,15.0,-100.00,NW,307,21.0,37.0,48,-99.99,,,-99.99,,2013-03-15 13:42:00,
2013-03-15 07:52:00,32.0,15.0,-100.00,NW,307,23.0,35.0,48,-99.99,,,-99.99,,2013-03-15 13:52:00,
2013-03-15 08:02:00,32.0,14.0,-100.00,NW,307,21.0,39.0,46,-99.99,,,-99.99,,2013-03-15 14:02:00,
2013-03-15 08:12:00,32.0,14.0,-100.00,NW,307,21.0,39.0,46,-99.99,,,-99.99,,2013-03-15 14:12:00,
2013-03-15 08:22:00,32.0,14.0,-100.00,NW,304,23.0,44.0,47,-99.99,,,-99.99,,2013-03-15 14:22:00,
2013-03-15 08:32:00,32.0,14.0,-100.00,NW,304,23.0,42.0,47,-99.99,,,-99.99,,2013-03-15 14:32:00,
2013-03-15 08:42:00,32.0,14.0,-100.00,NW,304,23.0,42.0,47,-99.99,,,-99.99,,2013-03-15 14:42:00,
2013-03-15 08:52:00,32.0,14.0,-100.00,NW,306,21.0,34.0,46,-99.99,,,-99.99,,2013-03-15 14:52:00,
2013-03-15 09:02:00,32.0,14.0,-100.00,NW,308,18.0,31.0,46,-99.99,,,-99.99,,2013-03-15 15:02:00,
2013-03-15 09:12:00,32.0,14.0,-100.00,NW,308,18.0,31.0,46,-99.99,,,-99.99,,2013-03-15 15:12:00,
2013-03-15 09:22:00,32.0,14.0,-100.00,NW,308,15.0,27.0,46,-99.99,,,-99.99,,2013-03-15 15:22:00,
2013-03-15 09:32:00,33.0,13.0,-100.00,NW,307,16.0,28.0,44,-99.99,,,-99.99,,2013-03-15 15:32:00,
2013-03-15 09:42:00,33.0,13.0,-100.00,NW,307,16.0,28.0,44,-99.99,,,-99.99,,2013-03-15 15:42:00,
2013-03-15 09:53:00,33.0,12.0,-100.00,WNW,302,16.0,30.0,42,-99.99,,,-99.99,,2013-03-15 15:53:00,
2013-03-15 10:02:00,33.0,12.0,-100.00,WNW,302,16.0,30.0,42,-99.99,,,-99.99,,2013-03-15 16:02:00,
2013-03-15 10:12:00,33.0,12.0,-100.00,WNW,302,16.0,30.0,42,-99.99,,,-99.99,,2013-03-15 16:12:00,
2013-03-15 10:22:00,33.0,12.0,-100.00,NW,304,13.0,26.0,41,-99.99,,,-99.99,,2013-03-15 16:22:00,
2013-03-15 10:32:00,34.0,13.0,-100.00,WNW,300,12.0,24.0,41,-99.99,,,-99.99,,2013-03-15 16:32:00,
2013-03-15 10:42:00,34.0,13.0,-100.00,WNW,300,12.0,24.0,41,-99.99,,,-99.99,,2013-03-15 16:42:00,
2013-03-15 10:52:00,34.0,12.0,-100.00,NW,304,11.0,27.0,40,-99.99,,,-99.99,,2013-03-15 16:52:00,
2013-03-15 11:02:00,34.0,12.0,-100.00,NW,307,13.0,24.0,40,-99.99,,,-99.99,,2013-03-15 17:02:00,
2013-03-15 11:12:00,34.0,12.0,-100.00,NW,307,13.0,24.0,40,-99.99,,,-99.99,,2013-03-15 17:12:00,
2013-03-15 11:22:00,34.0,12.0,-100.00,NW,305,15.0,29.0,40,-99.99,,,-99.99,,2013-03-15 17:22:00,
2013-03-15 11:32:00,35.0,14.0,-100.00,NW,309,13.0,24.0,42,-99.99,,,-99.99,,2013-03-15 17:32:00,
2013-03-15 11:42:00,35.0,14.0,-100.00,NW,309,13.0,24.0,42,-99.99,,,-99.99,,2013-03-15 17:42:00,
2013-03-15 11:53:00,35.0,14.0,-100.00,NW,310,14.0,25.0,42,-99.99,,,-99.99,,2013-03-15 17:53:00,
2013-03-15 12:02:00,36.0,15.0,-100.00,NW,304,13.0,25.0,42,-99.99,,,-99.99,,2013-03-15 18:02:00,
2013-03-15 12:12:00,36.0,15.0,-100.00,NW,304,13.0,25.0,42,-99.99,,,-99.99,,2013-03-15 18:12:00,
2013-03-15 12:22:00,36.0,15.0,-100.00,NW,304,13.0,25.0,42,-99.99,,,-99.99,,2013-03-15 18:22:00,
2013-03-15 12:32:00,37.0,17.0,-100.00,NW,309,11.0,28.0,43,-99.99,,,-99.99,,2013-03-15 18:32:00,
2013-03-15 12:42:00,37.0,17.0,-100.00,NW,309,11.0,28.0,43,-99.99,,,-99.99,,2013-03-15 18:42:00,
2013-03-15 12:52:00,37.0,17.0,-100.00,NW,306,13.0,24.0,44,-99.99,,,-99.99,,2013-03-15 18:52:00,
2013-03-15 13:02:00,37.0,16.0,-100.00,NW,309,12.0,28.0,42,-99.99,,,-99.99,,2013-03-15 19:02:00,
2013-03-15 13:12:00,37.0,16.0,-100.00,NW,309,12.0,28.0,42,-99.99,,,-99.99,,2013-03-15 19:12:00,
2013-03-15 13:22:00,38.0,17.0,-100.00,WNW,301,13.0,26.0,42,-99.99,,,-99.99,,2013-03-15 19:22:00,
2013-03-15 13:32:00,38.0,17.0,-100.00,WNW,301,10.0,21.0,42,-99.99,,,-99.99,,2013-03-15 19:32:00,
2013-03-15 13:42:00,38.0,17.0,-100.00,WNW,301,10.0,21.0,42,-99.99,,,-99.99,,2013-03-15 19:42:00,
2013-03-15 13:52:00,38.0,16.0,-100.00,WNW,300,11.0,22.0,41,-99.99,,,-99.99,,2013-03-15 19:52:00,
2013-03-15 14:02:00,37.0,17.0,-100.00,WNW,299,8.0,23.0,43,-99.99,,,-99.99,,2013-03-15 20:02:00,
2013-03-15 14:12:00,37.0,17.0,-100.00,WNW,299,8.0,23.0,43,-99.99,,,-99.99,,2013-03-15 20:12:00,
2013-03-15 14:22:00,37.0,17.0,-100.00,NW,305,14.0,26.0,44,-99.99,,,-99.99,,2013-03-15 20:22:00,
2013-03-15 14:31:00,36.0,17.0,-100.00,NW,307,15.0,31.0,45,-99.99,,,-99.99,,2013-03-15 20:31:00,
2013-03-15 14:42:00,36.0,17.0,-100.00,NW,307,15.0,31.0,45,-99.99,,,-99.99,,2013-03-15 20:42:00,
2013-03-15 14:52:00,36.0,17.0,-100.00,WNW,302,17.0,37.0,45,-99.99,,,-99.99,,2013-03-15 20:52:00,
2013-03-15 15:02:00,36.0,17.0,-100.00,NW,308,16.0,38.0,46,-99.99,,,-99.99,,2013-03-15 21:02:00,
2013-03-15 15:12:00,36.0,17.0,-100.00,NW,308,16.0,38.0,46,-99.99,,,-99.99,,2013-03-15 21:12:00,
2013-03-15 15:22:00,36.0,17.0,-100.00,WNW,300,17.0,32.0,46,-99.99,,,-99.99,,2013-03-15 21:22:00,
2013-03-15 15:32:00,36.0,17.0,-100.00,NW,306,19.0,38.0,46,-99.99,,,-99.99,,2013-03-15 21:32:00,
2013-03-15 15:43:00,36.0,17.0,-100.00,NW,306,19.0,38.0,46,-99.99,,,-99.99,,2013-03-15 21:43:00,
2013-03-15 15:52:00,35.0,17.0,-100.00,NW,304,20.0,41.0,47,-99.99,,,-99.99,,2013-03-15 21:52:00,
2013-03-15 16:03:00,35.0,16.0,-100.00,NW,305,21.0,44.0,46,-99.99,,,-99.99,,2013-03-15 22:03:00,
2013-03-15 16:13:00,35.0,16.0,-100.00,NW,305,21.0,44.0,46,-99.99,,,-99.99,,2013-03-15 22:13:00,
2013-03-15 16:22:00,35.0,16.0,-100.00,NW,307,18.0,40.0,46,-99.99,,,-99.99,,2013-03-15 22:22:00,
2013-03-15 16:32:00,35.0,16.0,-100.00,NW,307,19.0,36.0,46,-99.99,,,-99.99,,2013-03-15 22:32:00,
2013-03-15 16:42:00,35.0,16.0,-100.00,NW,307,19.0,36.0,46,-99.99,,,-99.99,,2013-03-15 22:42:00,
2013-03-15 16:52:00,34.0,16.0,-100.00,WNW,302,19.0,38.0,47,-99.99,,,-99.99,,2013-03-15 22:52:00,
2013-03-15 17:02:00,34.0,16.0,-100.00,NW,304,17.0,32.0,48,-99.99,,,-99.99,,2013-03-15 23:02:00,
2013-03-15 17:12:00,34.0,16.0,-100.00,NW,304,17.0,32.0,48,-99.99,,,-99.99,,2013-03-15 23:12:00,
2013-03-15 17:22:00,34.0,17.0,-100.00,WNW,303,15.0,32.0,49,-99.99,,,-99.99,,2013-03-15 23:22:00,
2013-03-15 17:32:00,34.0,17.0,-100.00,WNW,301,17.0,32.0,49,-99.99,,,-99.99,,2013-03-15 23:32:00,
2013-03-15 17:42:00,34.0,17.0,-100.00,WNW,301,17.0,32.0,49,-99.99,,,-99.99,,2013-03-15 23:42:00,
2013-03-15 17:53:00,34.0,17.0,-100.00,NW,305,17.0,34.0,49,-99.99,,,-99.99,,2013-03-15 23:53:00,
2013-03-15 18:02:00,33.0,16.0,-100.00,NW,310,16.0,29.0,50,-99.99,,,-99.99,,2013-03-16 00:02:00,
2013-03-15 18:12:00,33.0,16.0,-100.00,NW,310,16.0,29.0,50,-99.99,,,-99.99,,2013-03-16 00:12:00,
2013-03-15 18:22:00,33.0,16.0,-100.00,NW,305,14.0,31.0,50,-99.99,,,-99.99,,2013-03-16 00:22:00,
2013-03-15 18:32:00,33.0,16.0,-100.00,NW,305,14.0,31.0,50,-99.99,,,-99.99,,2013-03-16 00:32:00,
2013-03-15 18:42:00,33.0,16.0,-100.00,NW,305,14.0,31.0,50,-99.99,,,-99.99,,2013-03-16 00:42:00,
2013-03-15 18:52:00,32.0,18.0,-100.00,NW,305,17.0,28.0,55,-99.99,,,-99.99,,2013-03-16 00:52:00,
2013-03-15 19:02:00,32.0,19.0,-100.00,NW,304,12.0,28.0,59,-99.99,,,-99.99,,2013-03-16 01:02:00,
2013-03-15 19:12:00,32.0,19.0,-100.00,NW,304,12.0,28.0,59,-99.99,,,-99.99,,2013-03-16 01:12:00,
2013-03-15 19:21:00,31.0,19.0,-100.00,WNW,298,14.0,33.0,61,-99.99,,,-99.99,,2013-03-16 01:21:00,
2013-03-15 19:32:00,31.0,20.0,-100.00,NW,307,11.0,27.0,63,-99.99,,,-99.99,,2013-03-16 01:32:00,
2013-03-15 19:42:00,31.0,20.0,-100.00,NW,307,11.0,27.0,63,-99.99,,,-99.99,,2013-03-16 01:42:00,
2013-03-15 19:52:00,31.0,20.0,-100.00,WNW,300,8.0,21.0,64,-99.99,,,-99.99,,2013-03-16 01:52:00,
2013-03-15 20:02:00,31.0,21.0,-100.00,NW,306,9.0,18.0,65,-99.99,,,-99.99,,2013-03-16 02:02:00,
2013-03-15 20:12:00,31.0,21.0,-100.00,NW,306,9.0,18.0,65,-99.99,,,-99.99,,2013-03-16 02:12:00,
2013-03-15 20:22:00,31.0,21.0,-100.00,NW,305,11.0,24.0,65,-99.99,,,-99.99,,2013-03-16 02:22:00,
2013-03-15 20:32:00,30.0,19.0,-100.00,NW,304,14.0,25.0,64,-99.99,,,-99.99,,2013-03-16 02:32:00,
2013-03-15 20:42:00,30.0,19.0,-100.00,NW,304,14.0,25.0,64,-99.99,,,-99.99,,2013-03-16 02:42:00,
2013-03-15 20:52:00,30.0,20.0,-100.00,NW,309,13.0,26.0,65,-99.99,,,-99.99,,2013-03-16 02:52:00,
2013-03-15 21:02:00,30.0,20.0,-100.00,WNW,303,13.0,30.0,65,-99.99,,,-99.99,,2013-03-16 03:02:00,
2013-03-15 21:12:00,30.0,20.0,-100.00,WNW,303,13.0,30.0,65,-99.99,,,-99.99,,2013-03-16 03:12:00,
2013-03-15 21:21:00,30.0,20.0,-100.00,NW,305,17.0,28.0,65,-99.99,,,-99.99,,2013-03-16 03:21:00,
2013-03-15 21:32:00,30.0,20.0,-100.00,NW,307,16.0,32.0,66,-99.99,,,-99.99,,2013-03-16 03:32:00,
2013-03-15 21:43:00,30.0,20.0,-100.00,NW,307,16.0,32.0,66,-99.99,,,-99.99,,2013-03-16 03:43:00,
2013-03-15 21:53:00,29.0,19.0,-100.00,WNW,303,17.0,28.0,66,-99.99,,,-99.99,,2013-03-16 03:53:00,
2013-03-15 22:02:00,29.0,19.0,-100.00,NW,304,14.0,26.0,67,-99.99,,,-99.99,,2013-03-16 04:02:00,
2013-03-15 22:12:00,29.0,19.0,-100.00,NW,304,14.0,26.0,67,-99.99,,,-99.99,,2013-03-16 04:12:00,
2013-03-15 22:22:00,29.0,19.0,-100.00,WNW,301,16.0,30.0,67,-99.99,,,-99.99,,2013-03-16 04:22:00,
2013-03-15 22:32:00,29.0,20.0,-100.00,WNW,286,13.0,28.0,68,-99.99,,,-99.99,,2013-03-16 04:32:00,
2013-03-15 22:42:00,29.0,20.0,-100.00,WNW,286,13.0,28.0,68,-99.99,,,-99.99,,2013-03-16 04:42:00,
2013-03-15 22:53:00,29.0,20.0,-100.00,West,280,12.0,24.0,68,-99.99,,,-99.99,,2013-03-16 04:53:00,
2013-03-15 23:02:00,29.0,20.0,-100.00,NW,304,12.0,22.0,68,-99.99,,,-99.99,,2013-03-16 05:02:00,
2013-03-15 23:12:00,29.0,20.0,-100.00,NW,304,12.0,22.0,68,-99.99,,,-99.99,,2013-03-16 05:12:00,
2013-03-15 23:21:00,28.0,19.0,-100.00,WNW,303,11.0,21.0,69,-99.99,,,-99.99,,2013-03-16 05:21:00,
2013-03-15 23:32:00,28.0,19.0,-100.00,WNW,302,10.0,17.0,69,-99.99,,,-99.99,,2013-03-16 05:32:00,
2013-03-15 23:42:00,28.0,19.0,-100.00,WNW,302,10.0,17.0,69,-99.99,,,-99.99,,2013-03-16 05:42:00,
2013-03-15 23:53:00,28.0,20.0,-100.00,WNW,301,10.0,18.0,70,-99.99,,,-99.99,,2013-03-16 05:53:00,